Powrót do katalogu

STARLINK-37928

AktywnyŁącznośćVLEO
NORAD 69955·PAYLOAD·🇺🇸 United States

Wystrzelony Jul 9, 2026 z Cape Canaveral Space Force Station

Loading…

Następne Przeloty (najbliższe 24 godziny)

TLE

ŚwieżeSource: CelesTrak SupGP

Epoka: Sep 14, 2026, 23:02 UTC

1 69955C 26157N   26257.96020833 -.00004765  00000+0 -14077-3 0  2570
2 69955  53.1603 359.4247 0001221  80.0165 328.0979 15.34392702    19

Śledź STARLINK-37928 w czasie rzeczywistym z AllMySat

Download on the App Store